weather station
Area: 7197 km2
The highest point: Čupec (819 m.s.l.)
Total stations: 33
Stations online: 30
Stations offline: 3
Current weather
29°C

Meteorological map - weather stations in Jihomoravský

. The meteorological maps show weather information from WARIO weather stations

Weather stations Jihomoravský

 UpdatesNameStatusTemperatureHumidityWind speedWind direction
17.8.2017 15:23Adamov24.7 °C %4.7 m/s W
1.8.2017 09:10Boskovice29.5 °C41.7 %1.9 m/s S
17.8.2017 17:41Brno - Jundrov29.3 °C29.0 %1.4 m/s NW
17.8.2017 17:41Brno - Líšeň30.5 °C6.8 %0.6 m/s SE
17.8.2017 17:41Brno - Vinohrady28.6 °C39.6 %1.9 m/s N
17.8.2017 17:41Brno - Komín30.5 °C29.6 %1.2 m/s W
17.8.2017 17:41Brno-Kníničky31.1 °C34.3 %1.0 m/s NW
17.8.2017 17:40Býkovice25.5 °C48.8 %1.2 m/s SW
17.8.2017 17:41Bítov28.1 °C38.6 %1.6 m/s E
17.8.2017 17:40Diváky24.7 °C40.0 %0.2 m/s NE
17.8.2017 17:41Letonice26.9 °C38.9 %1.4 m/s NE
17.8.2017 17:40Brno - Královo pole29.4 °C32.2 %1.0 m/s W
17.8.2017 17:41Hodonín30.5 °C38.6 %2.0 m/s E
17.8.2017 17:41Moravany29.2 °C34.6 %0.6 m/s N
17.8.2017 17:41Lesní Hluboké25.7 °C40.0 %1.1 m/s S
17.8.2017 17:41Višňové32.6 °C35.5 %0.0 m/s W
17.8.2017 17:41Vranov25.6 °C36.5 %0.9 m/s N
17.8.2017 17:40Dolní Dubňany27.1 °C41.0 %1.5 m/s SE
17.8.2017 17:41Bzenec31.7 °C29.5 %0.9 m/s NW
17.8.2017 17:40Nová Lhota26.1 °C46.6 %0.0 m/s NE
17.8.2017 17:41Pohořelice29.2 °C37.6 %1.4 m/s NW
17.8.2017 17:41Brno28.7 °C31.4 %1.8 m/s SE
17.8.2017 17:40Šerkovice30.1 °C37.5 %0.6 m/s S
17.8.2017 17:40Brno-střed29.6 °C31.1 %0.9 m/s W
17.8.2017 17:40Strážnice28.9 °C40.7 %0.0 m/s NE
21.7.2017 10:54Němčičky24.8 °C62.3 %1.7 m/s N
17.8.2017 17:41Valtice32.0 °C23.9 %1.1 m/s S
17.8.2017 17:41Veselí nad Moravou LMK10926.8 °C50.2 %2.7 m/s E
17.8.2017 17:41Veselí nad Moravou27.7 °C39.2 %1.0 m/s E
17.8.2017 17:41Lipov28.0 °C44.5 %0.8 m/s NW
17.8.2017 17:41Strachotín29.7 °C43.1 %0.9 m/s SW
17.8.2017 17:41Terezín32.9 °C29.0 %0.3 m/s W
17.8.2017 17:41Brno - Královo Pole28.3 °C37.5 %1.1 m/s W
Email notifications
Enter your email address to subscribe to notifications about news at warioweather.com. Your email address will not be used for any purpose other than sending these emails and will not be provided to any third party. The subscription can be ended at any time.
All data are only indicative. The portal administrator has no responsibility for potentially incorrect data and related consequences. Publishing or further sharing of content from www.warioweather.com is only allowed with written consent from WANET s.r.o.